Showing default

IRIDIUM 174, 56728

Orbit data source: Space-Track

IRIDIUM 174, 56728 is a payload satellite owned by Iridium (US) in LEO that was launched on Sat, 20 May 2023 UTC via an FALCON 9 launch vehicle from the Air Force Western Test Range (AFWTR). Payload-class satellites include a variety of spacecraft equipped with specific instruments for various scientific and technological missions. These include communications satellites like Starlink; space stations such as the ISS; scientific satellites like the Hubble; Earth observation satellites from companies like Planet Labs, Umbra, and HawkEye 360; GPS; miniature CubeSats for education and research; and military/defense satellites.

Loading next visibility...
Identifier
56728, 2023-068U
Orbit
LEO
Country
Flag of USUS
Related business
Manufacturer
NGIS SSG Gilbert
Mission
Operational Commercial Communications
Bus & Motor
ELITEBUS, Unknown motor
Mass
860 kg wet, 700 kg dry
Launch date (UTC)
2023-05-20 (3 years ago)
Launch vehicle
FALCON 9
Launch site
Air Force Western Test Range (AFWTR)
Object type
Payload
Rocket body
Debris
Shape & HBR
Trap Box + 2 Pan, 4.8 m
Radar Cross Section
10.154 m², Large (>1 m²)

Expand to show TLE details & history
Last TLE update: 2 days ago

TLE from 2 days ago
0 IRIDIUM 174
1 56728U 23068U   26171.41519924  .00000592  00000-0  90019-4 0  9998
2 56728  86.6099 352.3407 0002429  84.2983 275.8511 14.72267531166496
Epoch: 2026-06-20T09:57Z
TLE epoch observation values (Epoch: 2026-06-20T09:57:53.214Z)
Latitude
-0.00002°
Longitude
-65.76118°
Altitude
656.772 km
Speed
7.529 km/s
True Right ascension
23h 29m 21s
True Declination
0° 00' 00"
Sunlit
Object was in daylight at epoch
Visualization orbit readout
Latitude
Unknown
Longitude
Unknown
Altitude
Unknown
Speed
Unknown
Apparent Right ascension
Unknown
Apparent Declination
Unknown
Sunlit
N/A
Visualization observer readout
Local Sidereal Time
21:31:33
Azimuth
Unknown
Elevation
Unknown
Doppler factor
Unknown
Orbital elements
Apogee altitude
652.453 km
Perigee altitude
649.038 km
Semi-major axis
7,028.882 km
Eccentricity
0.00024
Inclination
86.6099°
RAAN
352.3407°
Arg. of periapsis
84.2983°
True anomaly
275.82341°
Mean anomaly
275.8511°
Eccentric anomaly
275.83726°
Mean motion
3.6831 °/min
Orbital period
97.74 mins
BSTAR
0.000090019
Loading maneuver chart data...
Computing Atmospheric mass density...
Loading historical data...
Loading historical data...
Loading historical data...
Loading historical data...
Loading historical data...
Loading historical data...
Loading historical data...

Documentation

Showing up to 5 results
|